Regional Weather Roundup
Issued by NWS Goodland, KS

Home | Current Version | Previous Version | Graphics & Text | Print | Product List | Glossary On
Versions: 1 2 3 4 5 6 7 8 9 10 11 12 13 14 15 16 17 18 19 20 21 22 23 24 25 26 27 28 29 30 31 32 33 34 35 36 37 38 39 40 41 42 43 44 45 46 47 48 49 50
000
ASUS43 KGLD 221408
RWRGLD

GOODLAND FORECAST AREA HOURLY WEATHER ROUNDUP
NATIONAL WEATHER SERVICE GOODLAND KS
800 AM MDT TUE JUL 22 2014

...OFFICIAL OBSERVATIONS...

CITY           SKY/WX    TMP DP  RH WIND       PRES   REMARKS
GOODLAND KS    SUNNY     78  59  51 E7        30.15F
HILL CITY KS   SUNNY     75  64  68 CALM      30.11R
IMPERIAL NEB   SUNNY     76  59  55 SE8       30.14R
MCCOOK NEB     SUNNY     77  63  61 E15       30.09F
AKRON CO       SUNNY     76  54  46 E16       30.26R
BURLINGTON CO  SUNNY     78  58  49 N10       30.18R
LIMON CO       SUNNY     77  51  40 NW10      30.27R
$$

...UNOFFICIAL OBSERVATIONS...

CITY           SKY/WX    TMP DP  RH WIND       PRES   REMARKS
COLBY KS       SUNNY     75  64  69 NE7       30.14S
GOVE KS          N/A     75  32  20 MISG        N/A
NORTON KS      SUNNY     75  61  60 SE5       30.11R
OBERLIN KS     FAIR      79  63  57 E8        30.11R
SHARON SPRINGS   N/A     73  64  73 CALM        N/A
ST FRANCIS KS  SUNNY     79  55  44 E15G24    30.14R
TRIBUNE KS     SUNNY     73  55  53 S7        30.17S
WAKEENEY KS      N/A     79  60  52 MISG        N/A
KIT CARSON CO    N/A     83  57  40 N7          N/A
YUMA CO          N/A     76  59  54 E12         N/A
$$


USA.gov is the U.S. government's official web portal to all federal, state and local government web resources and services.